Location: Alsip
(41.6689°N, 87.7387°W)
Time: 13:49:42
(UTC+00:00)

SL-24 R/B - RUBIN 2 - Pass Details

Date: 14 July 2020
Orbit: 569 x 1027 km, 64.6° (Epoch: 04 August)

Event Time Altitude Azimuth Distance (km) Brightness Sun altitude
Rises 09:41:17 0° 325° (NW) 3,778 7.6 -8.2°
Reaches altitude 10° 09:43:58 10° 324° (NW) 2,809 7.0 -7.8°
Maximum altitude 09:50:38 76° 240° (WSW) 1,004 4.5 -6.8°
Drops below altitude 10° 09:56:45 10° 156° (SSE) 2,584 6.6 -5.9°
Sets 09:59:08 0° 154° (SSE) 3,458 7.3 -5.6°
